SL-16 DEB, 22419

Orbit data source: Space-Track

SL-16 DEB, 22419 is space debris in LEO originally from a launch on Fri, 25 Dec 1992 UTC launched from the Tyuratam Missile And Space Complex (TTMTR). Debris objects in space refer to the collection of defunct objects orbiting the Earth. Examples of debris include non-operational satellites, rocket bodies, and fragments generated from explosions, collisions, or faulty payload assembly.

Loading next visibility...
Identifier
22419, 1992-093DL
Orbit
LEO
Country
Flag of CISCIS
Related business
Manufacturer
Unknown
Mission
Spacecraft
Bus & Motor
Unknown
Mass
Unknown
Launch date (UTC)
1992-12-25 (33 years ago)
Launch vehicle
Unknown
Launch site
Tyuratam Missile And Space Complex (TTMTR)
Object type
Payload
Rocket body
Debris
Shape & HBR
Unknown shape, 0.1 m
Radar Cross Section
Small (<0.1 m²)

Expand to show TLE details & history
Last TLE update: 7 hours ago

TLE from 7 hours ago
0 SL-16 DEB
1 22419U 92093DL  25297.68710541  .00000298  00000-0  23810-3 0  9994
2 22419  71.1780 281.1343 0105942 189.2353 170.6816 13.95955783668226
Epoch: 2025-10-24T16:29Z
TLE epoch observation values (Epoch: 2025-10-24T16:29:25.907Z)
Latitude
-0.00002°
Longitude
0.44791°
Altitude
986.426 km
Speed
7.32 km/s
True Right ascension
18h 44m 32s
True Declination
0° 00' 00"
Sunlit
Object was in daylight at epoch
Visualization orbit readout
Latitude
Unknown
Longitude
Unknown
Altitude
Unknown
Speed
Unknown
Apparent Right ascension
Unknown
Apparent Declination
Unknown
Sunlit
N/A
Visualization observer readout
Local Sidereal Time
18:17:29
Azimuth
Unknown
Elevation
Unknown
Doppler factor
Unknown
Orbital elements
Apogee altitude
982.926 km
Perigee altitude
828.592 km
Semi-major axis
7,283.896 km
Eccentricity
0.01059
Inclination
71.178°
RAAN
281.1343°
Arg. of periapsis
189.2353°
True anomaly
170.87564°
Mean anomaly
170.6816°
Eccentric anomaly
170.77887°
Mean motion
3.49138 °/min
Orbital period
103.11 mins
BSTAR
0.0002381
Loading maneuver chart data...
Computing Atmospheric mass density...

Documentation

Showing up to 5 results
|